Location: Capel Gartheli
(52.1833°N, 4.0667°W)
Time: 17:39:25
(UTC+00:00)

CZ-4B DEB - Pass Details

Date: 18 February 2020
Orbit: 840 x 862 km, 99.1° (Epoch: 27 March)

Event Time Altitude Azimuth Distance (km) Brightness Sun altitude
Rises 06:22:58 0° 14° (NNE) 3,430 7.5 -10.4°
Reaches altitude 10° 06:25:22 10° 11° (N) 2,487 6.7 -10.0°
Maximum altitude 06:30:48 63° 292° (WNW) 942 4.2 -9.2°
Drops below altitude 10° 06:36:11 10° 212° (SSW) 2,458 6.4 -8.4°
Sets 06:38:32 0° 209° (SSW) 3,387 7.1 -8.0°
